• In India
  • List of Countries
  • For 7 days
  • Water Temperature
  • Satellite Maps
  • Weather Map
  • Weather Widgets
  • user-avatar
    Login

    Hourly Weather Obroki

    Today, 21 September, Friday

    Time Temperature Precipitation Wind Pressure Humidity
    00:00 +17°C° 0 mm 2 mps 743 mmHg 66%
    01:00 +17°C° 0 mm 2 mps 742 mmHg 67%
    02:00 +16°C° 0 mm 2 mps 742 mmHg 69%
    03:00 +16°C° 0 mm 2 mps 742 mmHg 71%
    04:00 +16°C° 0 mm 2 mps 742 mmHg 73%
    05:00 +16°C° 0 mm 2 mps 742 mmHg 72%
    06:00 +17°C° 0 mm 2 mps 742 mmHg 71%
    07:00 +17°C° 0 mm 2 mps 742 mmHg 68%
    08:00 +19°C° 0 mm 3 mps 742 mmHg 63%
    09:00 +21°C° 0 mm 3 mps 742 mmHg 57%
    10:00 +24°C° 0 mm 3 mps 742 mmHg 52%
    11:00 +25°C° 0 mm 3 mps 741 mmHg 47%
    12:00 +26°C° 0 mm 4 mps 741 mmHg 43%
    13:00 +28°C° 0 mm 3 mps 740 mmHg 38%
    14:00 +27°C° 0 mm 3 mps 740 mmHg 41%
    15:00 +27°C° 0 mm 3 mps 739 mmHg 45%
    16:00 +26°C° 0 mm 3 mps 739 mmHg 48%
    17:00 +25°C° 0 mm 4 mps 739 mmHg 52%
    18:00 +22°C° 0 mm 4 mps 738 mmHg 56%
    19:00 +21°C° 0 mm 5 mps 738 mmHg 59%
    20:00 +20°C° 0 mm 5 mps 738 mmHg 59%
    21:00 +20°C° 0 mm 5 mps 737 mmHg 59%
    22:00 +20°C° 0 mm 5 mps 737 mmHg 59%
    23:00 +19°C° 0 mm 5 mps 737 mmHg 60%

    Tomorrow, 22 September, Saturday

    Time Temperature Precipitation Wind Pressure Humidity
    00:00 +19°C° 0 mm 5 mps 737 mmHg 61%
    01:00 +19°C° 0 mm 5 mps 737 mmHg 62%
    02:00 +17°C° 0.1 mm 5 mps 737 mmHg 64%
    03:00 +17°C° 0.1 mm 5 mps 738 mmHg 66%
    04:00 +17°C° 0.1 mm 6 mps 738 mmHg 68%
    05:00 +16°C° 0.5 mm 6 mps 739 mmHg 73%
    06:00 +15°C° 0.5 mm 5 mps 740 mmHg 78%
    07:00 +13°C° 0.5 mm 5 mps 741 mmHg 83%
    08:00 +13°C° 0.1 mm 5 mps 741 mmHg 79%
    09:00 +14°C° 0.1 mm 5 mps 742 mmHg 75%
    10:00 +14°C° 0.1 mm 4 mps 742 mmHg 71%
    11:00 +14°C° 0 mm 4 mps 742 mmHg 68%
    12:00 +14°C° 0 mm 4 mps 743 mmHg 66%
    13:00 +14°C° 0 mm 3 mps 743 mmHg 63%
    14:00 +14°C° 0 mm 3 mps 742 mmHg 60%
    15:00 +16°C° 0 mm 3 mps 742 mmHg 57%
    16:00 +16°C° 0 mm 3 mps 742 mmHg 54%
    17:00 +14°C° 0.1 mm 3 mps 742 mmHg 58%
    18:00 +13°C° 0.1 mm 3 mps 742 mmHg 63%
    19:00 +12°C° 0.1 mm 3 mps 742 mmHg 67%
    20:00 +11°C° 0 mm 3 mps 742 mmHg 68%
    21:00 +11°C° 0 mm 3 mps 742 mmHg 70%
    22:00 +10°C° 0 mm 2 mps 742 mmHg 71%
    23:00 +10°C° 0 mm 3 mps 742 mmHg 71%

    Day after tomorrow, 23 September, Sunday

    Time Temperature Precipitation Wind Pressure Humidity
    00:00 +10°C° 0 mm 3 mps 742 mmHg 70%
    01:00 +10°C° 0 mm 3 mps 742 mmHg 70%
    02:00 +10°C° 0 mm 3 mps 742 mmHg 70%
    03:00 +10°C° 0 mm 3 mps 742 mmHg 71%
    04:00 +9°C° 0 mm 3 mps 742 mmHg 71%
    05:00 +10°C° 0 mm 3 mps 742 mmHg 70%
    06:00 +11°C° 0 mm 4 mps 742 mmHg 68%
    07:00 +11°C° 0 mm 4 mps 742 mmHg 67%
    08:00 +13°C° 0 mm 4 mps 742 mmHg 62%
    09:00 +14°C° 0 mm 4 mps 741 mmHg 57%
    10:00 +16°C° 0 mm 5 mps 741 mmHg 53%
    11:00 +16°C° 0.1 mm 5 mps 741 mmHg 53%
    12:00 +16°C° 0.1 mm 5 mps 741 mmHg 54%
    13:00 +16°C° 0.1 mm 5 mps 741 mmHg 54%
    14:00 +15°C° 0.1 mm 5 mps 740 mmHg 56%
    15:00 +15°C° 0.1 mm 4 mps 740 mmHg 57%
    16:00 +16°C° 0.1 mm 3 mps 740 mmHg 59%
    17:00 +14°C° 0 mm 3 mps 739 mmHg 63%
    18:00 +13°C° 0 mm 3 mps 739 mmHg 66%
    19:00 +13°C° 0 mm 2 mps 738 mmHg 70%
    20:00 +12°C° 0.3 mm 3 mps 737 mmHg 73%
    21:00 +12°C° 0.3 mm 3 mps 736 mmHg 76%
    22:00 +12°C° 0.3 mm 4 mps 735 mmHg 79%
    23:00 +12°C° 2 mm 5 mps 733 mmHg 78%

    24 September, Monday

    Time Temperature Precipitation Wind Pressure Humidity
    00:00 +12°C° 2 mm 7 mps 731 mmHg 77%
    01:00 +12°C° 2 mm 8 mps 729 mmHg 76%
    02:00 +12°C° 3 mm 8 mps 728 mmHg 79%
    03:00 +13°C° 3 mm 8 mps 726 mmHg 82%
    04:00 +13°C° 3 mm 9 mps 725 mmHg 84%
    05:00 +12°C° 0.3 mm 10 mps 726 mmHg 83%
    06:00 +11°C° 0.3 mm 11 mps 727 mmHg 82%
    07:00 +10°C° 0.3 mm 13 mps 728 mmHg 80%
    08:00 +9°C° 0.3 mm 12 mps 730 mmHg 80%
    09:00 +8°C° 0.3 mm 11 mps 732 mmHg 79%
    10:00 +8°C° 0.3 mm 11 mps 734 mmHg 78%
    11:00 +8°C° 0.2 mm 11 mps 735 mmHg 73%
    12:00 +9°C° 0.2 mm 11 mps 736 mmHg 68%
    13:00 +11°C° 0.2 mm 11 mps 737 mmHg 63%
    14:00 +11°C° 0.1 mm 10 mps 738 mmHg 61%
    15:00 +9°C° 0.1 mm 10 mps 738 mmHg 60%
    16:00 +9°C° 0.1 mm 10 mps 739 mmHg 58%
    17:00 +8°C° 0 mm 9 mps 740 mmHg 61%
    18:00 +9°C° 0 mm 8 mps 740 mmHg 63%
    19:00 +7°C° 0 mm 8 mps 741 mmHg 65%
    20:00 +6°C° 0 mm 7 mps 741 mmHg 67%
    21:00 +6°C° 0 mm 7 mps 742 mmHg 68%
    22:00 +6°C° 0 mm 7 mps 743 mmHg 70%
    23:00 +5°C° 0 mm 7 mps 743 mmHg 70%

    25 September, Tuesday

    Time Temperature Precipitation Wind Pressure Humidity
    00:00 +5°C° 0 mm 6 mps 744 mmHg 70%
    01:00 +5°C° 0 mm 6 mps 745 mmHg 71%
    02:00 +4°C° 0 mm 6 mps 745 mmHg 72%
    03:00 +4°C° 0 mm 6 mps 746 mmHg 73%
    04:00 +5°C° 0 mm 5 mps 746 mmHg 74%
    05:00 +4°C° 0 mm 6 mps 746 mmHg 73%
    06:00 +4°C° 0 mm 6 mps 747 mmHg 72%
    07:00 +5°C° 0 mm 6 mps 747 mmHg 71%
    08:00 +6°C° 0 mm 7 mps 748 mmHg 64%
    09:00 +8°C° 0 mm 7 mps 748 mmHg 57%
    10:00 +10°C° 0 mm 8 mps 749 mmHg 49%
    11:00 +10°C° 0.1 mm 7 mps 749 mmHg 48%
    12:00 +10°C° 0.1 mm 7 mps 749 mmHg 46%
    13:00 +11°C° 0.1 mm 7 mps 749 mmHg 45%
    14:00 +11°C° 0 mm 6 mps 748 mmHg 45%
    15:00 +10°C° 0 mm 6 mps 748 mmHg 45%
    16:00 +10°C° 0 mm 5 mps 748 mmHg 45%
    17:00 +9°C° 0 mm 5 mps 748 mmHg 48%
    18:00 +9°C° 0 mm 5 mps 748 mmHg 50%
    19:00 +8°C° 0 mm 5 mps 747 mmHg 53%
    20:00 +8°C° 0.1 mm 6 mps 747 mmHg 56%
    21:00 +8°C° 0.1 mm 6 mps 746 mmHg 59%
    22:00 +6°C° 0.1 mm 7 mps 746 mmHg 63%
    23:00 +6°C° 1 mm 7 mps 745 mmHg 69%

    26 September, Wednesday

    Time Temperature Precipitation Wind Pressure Humidity
    00:00 +6°C° 1 mm 7 mps 745 mmHg 75%
    01:00 +5°C° 1 mm 8 mps 744 mmHg 82%
    02:00 +5°C° 0.3 mm 7 mps 744 mmHg 82%
    03:00 +5°C° 0.3 mm 6 mps 744 mmHg 83%
    04:00 +6°C° 0.3 mm 5 mps 745 mmHg 83%
    05:00 +5°C° 0 mm 6 mps 745 mmHg 82%
    06:00 +5°C° 0 mm 6 mps 745 mmHg 81%
    07:00 +5°C° 0 mm 6 mps 746 mmHg 80%
    08:00 +7°C° 0.1 mm 6 mps 746 mmHg 75%
    09:00 +8°C° 0.1 mm 7 mps 746 mmHg 70%
    10:00 +9°C° 0.1 mm 7 mps 747 mmHg 65%
    11:00 +10°C° 0 mm 7 mps 747 mmHg 64%
    12:00 +10°C° 0 mm 7 mps 748 mmHg 63%
    13:00 +11°C° 0 mm 7 mps 748 mmHg 61%
    14:00 +11°C° 0 mm 6 mps 748 mmHg 62%
    15:00 +12°C° 0 mm 5 mps 749 mmHg 63%
    16:00 +12°C° 0 mm 4 mps 749 mmHg 64%
    17:00 +11°C° 0 mm 3 mps 749 mmHg 69%
    18:00 +10°C° 0 mm 3 mps 750 mmHg 73%
    19:00 +9°C° 0 mm 2 mps 750 mmHg 77%
    20:00 +8°C° 0 mm 2 mps 750 mmHg 78%
    21:00 +8°C° 0 mm 2 mps 750 mmHg 78%
    22:00 +8°C° 0 mm 2 mps 750 mmHg 78%
    23:00 +7°C° 0 mm 2 mps 750 mmHg 79%
    Show more